Left ArrowRight Arrow

33.98154, -81.23621

Hourly Observations for February 5, 2021

Temp ( °F °C ) Dew Point ( °F °C ) Humidity (%) Winds ( mph kmh ) Pressure ( in mb ) Visibility ( mi km ) Precip ( " mm )
12:56 am 00:56 Partly Cloudy 48 8.9 32 0 54 54 S 8 13 29.87 1012 10 16 0.00 0.00
1:56 am 01:56 Mostly Clear 48 8.9 33 0.6 56 56 S 9 15 29.85 1011 10 16 0.00 0.00
2:56 am 02:56 Cloudy 49 9.4 33 0.6 55 55 S 7 11 29.82 1010 10 16 0.00 0.00
3:56 am 03:56 Cloudy 50 10 33 0.6 52 52 SSW 8 13 29.80 1009 10 16 0.00 0.00
4:54 am 04:54 Cloudy with Light Rain 52 11 34 1 50 50 SSW 14 22 29.80 1009 10 16 0.00 0.00
4:56 am 04:56 Cloudy with Light Rain 52 11.1 34 1.1 50 50 SSW 14 22 29.80 1009 10 16 0.00 0.00
5:17 am 05:17 Cloudy with Light Rain 51 10.6 37 2.8 59 59 SSW 13 20 29.80 1009 10 16 0.00 0.00
5:24 am 05:24 Cloudy with Light Rain 51 10.6 37 2.8 59 59 SSW 13 20 29.80 1009 10 16 0.00 0.00
5:32 am 05:32 Cloudy with Light Rain 51 10.6 38 3.3 61 61 SSW 14 22 29.80 1009 10 16 0.00 0.00
5:56 am 05:56 Cloudy with Light Rain 50 10 40 4.4 68 68 SSW 8 13 29.81 1010 10 16 0.00 0.00
6:56 am 06:56 Cloudy with Light Rain 48 8.9 43 6.1 83 83 SSW 6 9 29.81 1010 10 16 0.00 0.00
7:56 am 07:56 Cloudy with Mist and Fog 48 8.9 44 6.7 86 86 SSW 8 13 29.81 1009 6 10 0.00 0.00
8:03 am 08:03 Cloudy 48 8.9 44 6.7 86 86 SSW 7 11 29.81 1010 10 16 0.00 0.00
8:56 am 08:56 Cloudy 49 9.4 45 7.2 86 86 SW 7 11 29.82 1010 8 13 0.00 0.00
9:31 am 09:31 Cloudy with Light Rain 49 9.4 46 7.8 90 90 SSW 7 11 29.81 1010 7 11 0.00 0.00
9:39 am 09:39 Cloudy with Light Rain 49 9.4 47 8.3 93 93 SSW 7 11 29.81 1010 3 4 0.00 0.00
9:56 am 09:56 Cloudy with Light Rain 49 9.4 47 8.3 93 93 SSW 6 9 29.81 1010 4 6 0.00 0.00
10:16 am 10:16 Cloudy with Mist and Fog 50 10 48 8.9 93 93 VRB 5 7 29.81 1010 6 10 0.00 0.00
10:56 am 10:56 Cloudy with Mist and Fog 51 10.6 49 9.4 92 92 SW 5 7 29.83 1010 3 4 0.00 0.00
11:21 am 11:21 Cloudy with Mist and Fog 52 11.1 50 10 93 93 SW 7 11 29.82 1010 4 6 0.00 0.00
11:56 am 11:56 Cloudy with Mist and Fog 53 11.7 51 10.6 93 93 WSW 6 9 29.82 1010 4 6 0.00 0.00
12:45 pm 12:45 Cloudy with Light Rain 54 12.2 52 11.1 93 93 WSW 9 15 29.81 1010 8 13 0.00 0.00
12:56 pm 12:56 Cloudy with Mist and Fog 54 12.2 52 11.1 93 93 W 10 17 29.81 1010 6 10 0.00 0.00
1:04 pm 13:04 Cloudy with Light Rain 55 13 52 11 88 88 W 12 19 29.81 1010 10 16 0.00 0.00
1:13 pm 13:13 Cloudy 55 12.8 50 10 83 83 WSW 14 22 29.81 1010 10 16 0.00 0.00
1:22 pm 13:22 Cloudy 55 13 48 9 77 77 W 16 26 29.82 1010 10 16 0.00 0.00
1:56 pm 13:56 Mostly Cloudy 57 13.9 48 8.9 72 72 W 10 17 29.80 1009 10 16 0.00 0.00
2:56 pm 14:56 Mostly Cloudy 59 15 38 3.3 46 46 W 12 19 29.81 1009 10 16 0.00 0.00
3:56 pm 15:56 Mostly Cloudy 57 13.9 36 2.2 45 45 W 9 15 29.81 1010 10 16 0.00 0.00
4:56 pm 16:56 Mostly Cloudy 56 13.3 37 2.8 49 49 WSW 8 13 29.82 1010 10 16 0.00 0.00
5:56 pm 17:56 Mostly Cloudy 53 11.7 37 2.8 55 55 WSW 5 7 29.86 1011 10 16 0.00 0.00
6:56 pm 18:56 Mostly Cloudy 51 10.6 30 -1.1 44 44 W 9 15 29.89 1012 10 16 0.00 0.00
7:56 pm 19:56 Mostly Cloudy 49 9.4 29 -1.7 46 46 W 8 13 29.90 1013 10 16 0.00 0.00
8:56 pm 20:56 Mostly Cloudy 50 10 28 -2.2 43 43 WSW 7 11 29.93 1014 10 16 0.00 0.00
9:56 pm 21:56 Mostly Cloudy 50 10 29 -1.7 44 44 W 7 11 29.96 1015 10 16 0.00 0.00
10:56 pm 22:56 Cloudy 49 9.4 29 -1.7 46 46 WSW 6 9 29.97 1015 10 16 0.00 0.00
11:56 pm 23:56 Cloudy 49 9.4 27 -2.8 43 43 NNW 3 6 29.95 1014 10 16 0.00 0.00

Powered by Vaisala Xweather